星链-31303 (STARLINK-31303 )

导读

STARLINK-31303是美国太空探索技术公司星链互联网卫星星座的一员,于2024年3月16日发射,星链项目旨在为全球提供高速低延迟宽带互联网服务,该卫星入轨后承担地面网络覆盖任务,是星链低轨星座扩容的组成部分,进一步拓展了星座的全球服务能力。

Basic Information
目录编号:
59239
目录名称:
STARLINK-31303
国际标识:
2024-049J
轨道中心:
EARTH
卫星名称:
星链-31303
卫星全名:
星链-31303 (STARLINK-31303 )
卫星状态:
在轨 (已飞行824 天)
发射日期:
2024-03-16 UTC
国别 :
美国 (US)
星等 :
--
Orbit Information
数据来源 国际轨道数据 AOE轨道数据
星历时间 2026-06-16T09:11:34+0800
2天前
查看轨道信息
2026-06-15T08:00:00+0800
3天前
查看轨道信息
半长轴 6861.206km 6861.157km
偏心率 0.0001062 0.0000068
轨道倾角 43.008° 43.000°
近地点辐角 261.206° 313.322°
升交点赤经 297.205° 303.135°
平近点角 98.867° 27.405°
近地点 482.34km 482.973km
远地点 483.798km 483.067km
周期 94.267分钟 94.266分钟
每日圈数 15.275735 15.2759
Detailed Information
固有亮度:
5
最大亮度:
0.3
卫星平台:
Starlink v2.0 mini
覆盖范围:
全球
运营商:
太空探索技术公司
运营商所在国:
美国
制造商(研发单位):
太空探索技术公司
制造商所在国:
美国
使用方式:
暂无
Satellite Introduction
星链(Starlink)计划是由太空探索技术公司(SpaceX)提出的一个巨型低轨卫星互联网星座项目,计划在2019年至2024年间在太空搭建由约1.2万颗卫星组成的“星链”网络,其中1584颗将部署在地球上空550千米处的近地轨道,并从2020年开始工作。该卫星仍在工作。
2D Orbit Map
3D Orbit Map
Orbit Altitude Analysis Chart
Orbit Inclination Analysis Chart
Orbit Comprehensive Analysis Chart
View Comprehensive Chart